Wetbulb
48.67 44.20 41.40 44.29 46.01 46.39 48.41 47.88 48.39 52.90 56.64 58.86 58.45 57.77 60.27 63.73 64.03 64.28 64.71 65.44 65.56 65.85 67.81 68.75 69.43 69.94 69.76 68.94 69.98 69.59 69.63 70.69 70.95 70.41 69.87 68.68 68.24 69.31 69.82 69.32 71.66 72.49 72.96 73.83
45.57 43.71 47.15 49.32 48.77 47.62 47.86 47.45 48.58 53.05 56.02 55.04 57.75 57.10 60.34 61.87 62.39 63.97 63.50 63.38 65.23 66.22 67.13 67.88 68.54 69.49 69.43 68.57 69.90 69.74 69.90 70.00 70.81 70.93 70.93 69.83 69.20 69.44 70.07 68.98 72.28 73.14 73.36 74.08
45.79 48.66 51.49 50.41 48.85 47.66 47.54 46.21 48.40 49.47 53.31 53.54 57.67 55.33 57.16 60.24 60.58 62.34 64.31 65.01 65.38 64.79 66.34 67.38 68.05 69.05 69.71 68.54 69.09 69.18 70.27 70.24 70.83 71.22 70.45 70.18 70.69 69.16 68.89 68.20 68.23 73.13 73.88 74.18
47.90 52.11 51.32 50.22 49.39 49.86 44.64 50.89 51.12 51.24 48.77 44.67 53.35 47.64 54.23 57.42 57.85 60.58 62.07 63.94 64.48 65.13 64.54 67.90 68.44 68.81 69.61 69.00 69.69 69.70 70.90 70.78 71.05 71.64 70.33 70.06 70.13 69.41 68.44 67.57 67.95 71.79 73.59 73.24
45.10 50.18 50.11 49.53 50.57 52.21 48.20 51.78 50.85 51.09 47.17 43.59 48.66 47.17 52.02 57.02 55.48 57.69 60.92 63.44 64.07 64.76 65.33 65.58 68.51 69.24 69.94 69.76 69.21 70.18 71.26 71.09 71.27 71.97 71.03 70.24 69.42 69.49 68.11 67.71 67.74 68.48 71.95 72.69
47.02 51.19 53.35 52.42 54.07 53.91 53.16 50.20 49.43 49.29 44.31 40.16 47.03 44.67 47.36 53.20 55.97 57.70 60.55 62.55 63.78 61.93 64.32 65.48 68.43 69.38 69.23 69.92 69.77 69.98 70.68 70.96 71.29 71.91 71.34 70.59 69.39 67.83 67.38 66.76 66.97 67.20 69.91 71.33
46.78 47.41 49.94 55.11 51.18 52.88 51.87 44.53 39.96 36.13 37.96 37.98 46.04 42.97 45.69 56.44 58.99 59.79 59.98 62.03 63.69 63.20 63.38 65.04 66.81 67.30 68.20 68.93 69.63 69.22 70.45 70.66 71.22 71.54 71.30 70.89 70.30 68.86 68.21 67.17 66.41 67.56 69.83 70.83
39.84 38.94 47.34 50.49 51.32 49.44 48.31 47.35 37.54 32.73 33.63 39.71 42.23 39.56 45.04 57.68 60.71 61.95 62.22 62.83 63.93 63.36 64.53 65.42 67.07 67.67 68.15 68.95 69.65 69.61 69.30 70.37 71.51 71.47 71.05 71.13 69.75 70.55 69.41 67.98 67.78 67.27 70.05 72.21
32.83 40.67 50.10 51.77 52.12 52.84 48.39 45.12 45.91 37.06 36.09 35.62 39.19 42.84 48.02 51.36 57.81 61.34 61.76 62.42 62.58 63.02 64.21 65.83 67.43 67.99 68.13 68.96 69.49 69.99 69.44 69.74 71.56 71.62 71.64 71.48 71.45 70.69 70.36 69.44 68.77 68.83 69.91 73.01
37.82 33.28 46.51 50.09 52.72 52.75 50.66 48.19 40.51 36.33 34.31 30.83 37.11 39.05 43.17 46.57 48.29 56.19 59.85 61.42 62.56 63.54 64.88 66.74 67.38 68.07 68.50 69.23 70.00 70.59 70.67 69.88 70.95 72.18 71.66 71.19 71.42 72.86 71.78 69.88 68.89 70.64 70.00 71.38
38.67 35.18 40.92 45.09 46.90 47.90 44.77 46.35 43.84 42.57 37.27 36.41 33.07 39.24 46.23 46.87 48.53 49.35 55.73 62.04 63.17 64.46 65.53 67.43 67.54 68.29 68.62 68.83 69.89 70.44 70.83 70.59 70.76 71.51 72.49 72.08 71.44 70.86 72.80 72.21 69.93 70.14 69.96 71.63
40.40 38.07 33.75 40.85 47.84 49.10 51.97 43.47 44.37 41.17 35.50 36.05 37.18 42.03 50.74 50.50 50.87 51.93 52.37 61.26 63.83 66.05 67.13 67.95 67.59 68.03 68.05 68.11 69.03 69.90 70.97 71.08 71.18 71.74 72.13 72.50 72.65 72.21 70.47 71.80 72.80 71.35 70.35 70.73
39.97 37.66 30.40 37.06 39.81 44.89 43.29 49.17 43.06 40.59 39.03 37.06 38.99 41.60 49.26 49.58 51.20 52.94 53.41 56.57 64.79 66.37 67.30 67.62 67.45 67.29 67.46 67.74 68.26 69.52 70.55 71.40 71.87 72.14 71.93 71.96 72.79 72.99 72.49 71.31 71.75 73.24 71.85 70.70
41.75 35.81 33.51 29.71 35.82 41.20 41.07 45.37 45.60 45.05 40.57 40.01 41.20 42.77 46.84 49.51 50.90 52.03 52.94 56.15 62.63 65.91 66.70 67.27 67.22 67.28 67.56 67.71 67.95 68.77 69.64 71.79 72.06 72.56 72.65 71.94 72.56 73.46 73.91 73.63 72.38 71.93 73.04 71.88
37.82 31.85 32.94 35.17 38.61 41.23 42.78 46.62 46.62 43.03 43.58 42.20 43.43 44.14 46.49 48.19 52.04 52.06 53.68 55.78 60.84 65.01 66.20 67.08 67.05 67.37 67.71 67.57 67.85 68.70 69.47 70.98 72.41 72.55 72.72 72.86 73.10 73.68 74.38 74.48 73.88 73.18 72.09 72.79
37.82 31.16 32.89 32.17 42.84 44.83 44.83 48.56 48.13 46.96 45.73 44.65 43.89 44.82 48.86 50.89 54.54 54.63 55.57 56.94 61.20 64.54 66.11 67.30 67.80 67.94 67.84 67.89 67.71 68.33 68.74 70.32 72.03 72.19 72.71 73.17 74.00 74.05 74.21 74.53 74.75 74.28 73.54 72.55
34.47 30.85 29.26 29.21 41.79 45.43 41.57 46.13 47.90 47.24 47.44 47.04 43.09 45.94 50.72 52.89 53.76 53.46 55.11 57.54 57.47 61.20 65.97 66.93 67.87 68.22 68.46 68.47 68.52 67.88 68.69 69.62 71.59 72.09 72.71 73.60 73.73 74.41 74.31 74.85 74.83 75.05 74.89 74.43
35.22 31.13 29.60 30.51 37.29 34.64 43.52 47.15 47.70 48.55 49.21 49.65 51.46 51.41 53.28 56.22 59.09 60.15 60.02 60.25 60.89 61.85 62.03 61.66 63.48 66.78 68.74 69.57 69.17 68.89 69.19 69.51 69.65 71.51 72.69 73.46 74.01 74.02 74.75 74.80 74.68 74.98 75.45 75.38
38.59 34.32 28.31 32.73 34.76 41.56 42.58 44.85 44.08 43.71 45.46 48.92 49.45 54.53 58.64 59.77 60.06 58.53 60.92 61.88 61.75 62.55 63.17 63.28 63.99 64.26 65.10 66.44 68.91 69.11 68.84 69.24 69.46 69.60 70.03 72.88 74.02 74.38 74.57 74.48 74.76 75.29 75.32 75.35
38.55 38.52 31.75 32.90 34.72 34.02 41.63 46.38 50.32 51.20 39.65 48.54 49.41 50.25 55.70 57.18 51.12 52.28 57.45 61.43 61.24 62.18 63.56 65.51 66.71 67.42 66.29 64.51 67.21 69.58 69.63 69.53 69.21 69.92 70.90 71.50 72.62 74.08 74.48 74.59 74.70 75.67 75.63 75.50
33.25 33.68 33.57 34.33 36.58 41.23 41.81 46.57 52.19 40.23 41.76 48.01 48.71 48.78 49.50 49.26 50.65 52.44 56.44 56.99 60.34 61.39 62.36 64.26 65.91 66.49 65.85 67.05 64.33 65.54 68.73 69.29 70.77 71.11 70.99 72.33 72.66 72.79 74.30 74.75 75.09 74.76 75.17 75.38
33.66 33.34 31.64 33.85 35.40 33.45 43.81 45.28 38.84 42.37 47.55 48.40 47.95 47.63 48.00 48.55 52.61 52.90 53.29 53.73 55.02 59.68 60.31 61.85 62.87 66.52 68.73 73.23 68.61 66.45 65.21 65.42 69.31 71.92 71.51 72.44 73.44 73.62 74.29 74.00 74.66 74.86 74.65 74.73
31.61 35.99 33.99 34.92 36.72 43.60 46.15 45.53 47.91 47.01 45.42 46.12 46.68 47.81 47.98 48.34 50.26 52.07 51.70 52.04 52.71 53.26 55.75 59.81 60.22 63.79 67.21 68.58 73.50 72.72 71.19 72.30 71.26 71.24 70.88 71.68 72.72 73.78 74.31 74.10 73.89 74.23 74.55 74.53
38.30 40.38 34.54 33.28 39.81 40.05 43.02 46.74 46.69 45.12 45.59 45.82 46.68 47.88 48.58 46.88 49.89 50.20 50.74 51.01 51.58 52.46 52.77 55.23 59.03 59.99 61.37 65.53 69.40 72.21 73.08 73.63 73.04 70.81 69.36 71.43 71.77 72.02 71.82 74.68 74.70 74.43 74.68 74.48
37.24 37.90 35.73 33.39 36.81 40.40 43.16 44.46 44.26 44.52 46.04 45.62 46.31 46.98 48.93 48.59 49.47 49.46 49.42 50.08 51.23 52.22 52.55 53.37 54.99 58.48 59.26 61.70 66.01 68.63 71.93 72.05 71.30 71.87 72.02 71.19 72.33 70.76 70.65 63.57 64.21 72.09 69.08 69.68
38.93 36.34 34.06 33.66 38.98 39.27 40.11 43.31 45.04 43.93 44.25 45.42 44.97 45.15 47.89 48.74 49.23 49.36 49.16 50.03 50.62 51.08 51.02 50.81 53.01 58.56 59.29 60.24 61.58 66.28 70.69 70.51 69.71 70.21 72.16 72.46 72.84 71.53 65.65 60.95 56.86 47.73 47.46 45.18
MSLP
1004.08 1004.75 1003.75 1003.42 1004.41 1004.62 1004.29 1003.87 1003.26 1002.03 1001.84 1003.20 1004.25 1005.07 1005.84 1006.54 1008.06 1007.95 1008.76 1008.86 1008.81 1008.79 1008.77 1009.85 1010.24 1010.88 1011.58 1012.39 1012.91 1013.44 1014.10 1014.74 1015.25 1015.64 1016.07 1016.24 1016.50 1016.55 1016.76 1016.93 1016.78 1017.14 1017.28 1017.45
1003.80 1002.62 1002.57 1003.39 1003.76 1004.06 1003.84 1003.40 1002.62 1001.84 1001.02 1002.00 1003.70 1004.81 1005.88 1006.52 1006.74 1006.72 1006.98 1007.63 1007.69 1007.76 1008.58 1009.02 1009.69 1010.26 1010.75 1011.59 1012.26 1013.03 1013.56 1014.19 1014.68 1015.04 1015.46 1015.82 1016.07 1016.31 1016.41 1016.56 1016.66 1016.82 1017.13 1017.34
1001.94 1001.07 1002.10 1002.34 1002.56 1002.80 1002.61 1002.52 1002.21 1001.96 1001.10 1001.37 1003.21 1004.97 1006.49 1007.78 1007.76 1007.01 1006.76 1006.32 1005.62 1005.29 1006.44 1007.88 1008.52 1009.25 1010.04 1010.81 1011.48 1012.21 1012.89 1013.58 1014.08 1014.61 1015.25 1015.71 1016.04 1016.38 1016.66 1016.69 1016.77 1016.74 1016.95 1017.22
1001.42 1000.93 1000.91 1001.23 1001.05 1001.34 1001.46 1001.44 1001.74 1002.01 1002.11 1002.35 1002.15 1004.90 1005.94 1006.57 1006.75 1006.49 1005.56 1005.90 1004.95 1005.00 1005.39 1006.52 1007.34 1007.99 1008.82 1009.58 1010.72 1011.45 1012.23 1012.94 1013.56 1014.12 1014.76 1015.13 1015.48 1015.97 1016.20 1016.20 1016.50 1016.70 1016.75 1017.06
999.40 999.85 999.95 999.86 999.15 999.95 1000.01 1001.18 1001.57 1001.96 1002.42 1002.86 1002.38 1003.90 1004.31 1005.49 1005.57 1005.60 1005.11 1004.24 1004.16 1004.19 1004.21 1004.97 1005.68 1006.24 1007.32 1008.77 1009.85 1010.69 1011.51 1012.24 1012.88 1013.55 1013.96 1014.49 1015.05 1015.50 1015.72 1016.06 1016.32 1016.64 1016.72 1016.77
1000.02 999.52 998.98 998.41 998.85 999.38 999.99 1000.92 1001.46 1001.84 1002.59 1002.83 1001.84 1003.11 1003.34 1004.32 1003.28 1003.02 1003.09 1002.94 1002.98 1003.57 1003.60 1003.84 1004.78 1005.67 1006.56 1007.84 1008.92 1009.99 1010.94 1011.54 1012.11 1012.82 1013.40 1013.86 1014.47 1015.00 1015.60 1015.97 1016.28 1016.44 1016.53 1016.72
1000.58 998.89 998.47 998.04 998.58 998.93 999.72 1000.62 1002.05 1002.46 1002.51 1002.29 1001.52 1002.04 1001.07 1001.22 1001.34 999.90 1000.70 1001.26 1001.81 1002.40 1002.92 1003.26 1003.66 1004.58 1005.69 1006.88 1007.90 1008.95 1010.03 1010.82 1011.44 1012.02 1012.65 1013.19 1013.74 1014.36 1014.84 1015.27 1015.63 1016.04 1016.23 1016.39
1001.89 999.79 997.59 996.90 997.32 998.12 998.88 1000.07 1001.26 1002.13 1002.55 1002.46 1001.34 1000.22 998.57 998.53 998.75 998.93 998.71 999.06 1000.00 1001.24 1001.35 1002.19 1002.60 1003.30 1004.46 1005.74 1006.85 1007.98 1009.04 1009.82 1010.52 1011.15 1011.74 1012.44 1013.18 1013.71 1014.08 1014.48 1014.89 1015.26 1015.62 1015.72
1006.90 999.96 997.32 997.01 996.57 997.06 997.78 998.59 1000.16 1001.61 1002.23 1002.14 1000.41 999.10 997.86 997.28 997.57 998.49 999.00 999.96 1000.32 1000.32 1000.48 1000.90 1001.76 1002.75 1003.66 1004.75 1005.78 1006.80 1007.97 1008.85 1009.62 1010.27 1011.07 1011.77 1012.29 1012.81 1013.24 1013.68 1014.14 1014.66 1014.94 1015.12
1010.08 1005.46 998.19 996.32 996.23 996.17 995.78 997.40 998.95 999.98 1001.42 1001.75 1000.06 998.28 996.77 996.39 996.52 996.54 997.16 997.97 998.41 998.60 999.19 1000.01 1000.90 1001.80 1002.62 1003.63 1004.63 1005.90 1006.94 1007.76 1008.56 1009.39 1010.16 1010.92 1011.55 1012.08 1012.52 1013.13 1013.61 1013.96 1014.34 1014.66
1011.39 1008.57 1000.59 997.62 995.94 994.81 995.83 995.99 997.11 998.89 1000.06 1000.66 999.89 996.80 995.11 995.07 995.03 995.36 995.34 995.80 996.18 996.91 997.58 998.59 999.53 1000.60 1001.52 1002.69 1004.02 1004.99 1006.13 1007.01 1007.94 1008.71 1009.42 1010.11 1010.78 1011.38 1012.12 1012.56 1012.91 1013.26 1013.76 1014.08
1012.10 1009.78 1005.52 999.42 995.84 995.24 995.21 995.74 996.70 997.52 999.07 999.44 998.54 995.76 994.18 993.89 993.75 993.63 993.86 993.89 994.45 995.45 995.96 996.93 998.25 999.56 1000.99 1002.06 1003.32 1004.24 1005.26 1006.16 1006.85 1007.64 1008.49 1009.22 1009.96 1010.78 1011.45 1011.86 1012.26 1012.65 1013.04 1013.32
1013.31 1010.99 1008.09 1001.06 997.99 996.16 995.77 995.36 995.35 996.22 997.27 997.75 998.07 995.24 993.61 993.16 992.89 992.66 991.66 992.50 993.11 994.11 995.28 996.21 997.71 999.20 1000.20 1001.24 1002.25 1003.28 1004.37 1005.19 1005.96 1006.87 1007.70 1008.54 1009.25 1009.90 1010.43 1010.88 1011.35 1011.95 1012.24 1012.58
1014.10 1012.52 1009.78 1005.84 1001.12 999.43 996.42 995.21 995.00 995.06 995.90 996.56 996.19 994.90 994.11 993.07 992.23 991.20 990.58 991.08 991.92 993.11 994.19 995.56 997.12 998.14 999.28 1000.08 1000.98 1002.09 1003.12 1004.23 1005.19 1006.17 1006.97 1007.60 1008.20 1008.80 1009.35 1009.87 1010.48 1010.89 1011.31 1011.84
1014.54 1012.48 1009.97 1006.54 1002.99 1000.20 997.80 995.20 993.94 994.54 994.59 995.27 995.40 994.99 993.84 993.27 992.42 991.43 990.72 991.05 991.74 992.49 993.71 994.88 996.12 997.18 998.28 999.46 1000.41 1001.44 1002.36 1003.21 1004.09 1005.08 1005.92 1006.57 1007.22 1007.78 1008.44 1009.04 1009.48 1009.90 1010.38 1010.79
1013.74 1012.14 1009.88 1005.52 1000.75 998.62 996.80 994.58 993.64 993.72 993.77 994.28 994.56 994.25 993.18 993.03 992.63 991.78 991.41 991.77 992.02 992.41 993.19 994.06 994.83 995.80 997.10 998.25 999.26 1000.23 1001.23 1002.10 1003.12 1004.02 1004.75 1005.43 1006.24 1006.92 1007.42 1007.90 1008.43 1008.98 1009.53 1009.97
1012.66 1011.60 1009.82 1005.16 1000.73 997.99 996.73 995.65 994.29 993.66 993.83 994.31 995.01 994.21 993.92 993.62 994.19 993.65 992.57 992.54 992.85 992.97 992.99 993.30 994.20 995.11 995.91 996.99 998.04 999.28 1000.07 1001.23 1002.30 1003.09 1003.80 1004.65 1005.32 1005.87 1006.37 1006.87 1007.54 1007.98 1008.45 1008.92
1010.56 1010.42 1009.29 1005.10 1001.47 999.01 997.74 996.46 996.14 995.09 996.36 996.28 995.68 994.44 994.11 995.29 995.10 994.70 994.69 993.80 994.06 994.11 994.51 994.68 994.96 995.51 995.90 996.72 997.49 998.40 999.75 1000.46 1001.35 1002.21 1002.94 1003.71 1004.38 1004.91 1005.49 1006.15 1006.54 1007.00 1007.50 1007.86
1009.59 1009.69 1008.24 1005.50 1002.51 999.21 998.03 998.44 998.86 998.33 999.14 998.90 997.29 995.44 995.18 995.30 994.50 996.88 996.93 996.61 996.13 995.93 996.05 995.88 995.79 996.08 996.64 997.29 997.64 998.61 999.54 1000.17 1000.87 1001.41 1001.76 1002.40 1003.24 1003.96 1004.59 1005.16 1005.64 1005.98 1006.49 1006.93
1009.48 1009.13 1008.50 1005.85 1003.56 1001.73 1002.41 1000.21 997.36 997.68 1000.48 1000.41 999.10 998.06 996.85 995.23 997.69 999.74 999.06 998.44 997.88 997.43 997.27 997.12 997.23 997.44 997.76 998.04 997.64 998.47 999.10 999.66 999.90 1000.19 1000.80 1001.67 1002.36 1002.92 1003.41 1003.94 1004.49 1004.83 1005.34 1005.74
1009.63 1007.95 1007.36 1005.86 1004.38 1004.16 1004.87 1001.72 998.93 1000.54 1004.44 1002.89 1001.53 1000.86 1000.20 999.78 1000.67 1000.79 1000.02 999.71 999.37 999.10 998.89 998.44 998.20 998.33 998.65 998.44 998.29 998.75 999.15 999.37 999.54 1000.24 1000.73 1001.22 1001.46 1001.86 1002.42 1003.07 1003.67 1004.18 1004.62 1005.06
1010.26 1009.42 1008.60 1007.46 1006.70 1007.79 1007.94 1005.25 1004.96 1007.29 1005.50 1004.28 1003.36 1002.88 1002.68 1002.06 1001.64 1001.11 1000.91 1000.77 1000.25 1000.15 1000.04 999.86 999.28 999.26 999.15 998.66 998.86 999.44 999.64 999.60 999.56 999.66 1000.03 1000.62 1001.13 1001.58 1002.13 1002.56 1003.08 1003.57 1004.09 1004.47
1011.16 1010.95 1010.67 1010.84 1010.00 1009.39 1008.77 1007.78 1007.09 1007.23 1006.56 1006.05 1005.18 1004.18 1003.28 1002.78 1002.38 1002.19 1002.18 1001.81 1001.42 1001.22 1001.05 1001.08 1000.77 1000.51 1000.06 999.80 999.72 999.89 1000.14 999.94 999.90 999.97 1000.28 1000.39 1000.56 1000.88 1001.33 1001.99 1002.54 1003.18 1003.55 1003.84
1011.18 1011.34 1011.81 1011.15 1009.97 1009.13 1008.22 1007.33 1007.07 1007.21 1007.07 1006.96 1006.30 1005.35 1003.81 1003.08 1002.95 1002.98 1002.72 1002.67 1002.46 1002.06 1001.71 1001.45 1001.27 1001.32 1001.25 1000.89 1000.56 1000.54 1000.52 1000.37 1000.36 1000.58 1000.50 1000.56 1000.77 1000.98 1001.21 1001.69 1002.18 1002.63 1003.06 1003.41
1013.76 1012.97 1012.44 1011.10 1010.27 1009.50 1008.28 1008.21 1007.88 1007.56 1007.05 1007.08 1007.08 1006.05 1004.81 1003.65 1003.58 1003.40 1003.21 1003.22 1003.13 1002.74 1002.51 1002.25 1002.04 1001.86 1001.67 1001.55 1001.15 1000.72 1000.58 1000.53 1000.72 1000.79 1000.74 1000.67 1000.59 1000.73 1001.21 1001.87 1002.60 1002.60 1002.52 1002.80
1014.19 1013.37 1012.59 1011.60 1010.87 1011.12 1010.27 1009.09 1009.62 1008.21 1007.84 1006.82 1006.52 1005.03 1004.20 1004.06 1003.74 1003.50 1003.44 1003.29 1003.09 1002.95 1002.46 1002.49 1002.72 1002.62 1002.19 1001.63 1001.05 1000.72 1000.60 1000.57 1000.76 1000.88 1000.69 1000.43 1000.18 1000.34 1001.06 1002.01 1002.99 1003.26 1003.12 1003.03
Wind_Speed
9 11 20 24 16 5 5 7 10 8 10 22 18 20 26 24 18 22 19 22 22 24 24 20 19 20 17 13 18 20 19 14 9 5 4 3 4 2 2 3 7 6 6 6
4 21 18 8 10 11 15 10 13 15 14 8 23 22 23 22 22 25 22 21 22 20 21 21 21 20 19 16 20 19 19 15 12 9 7 4 4 2 2 3 5 7 7 6
20 7 18 16 16 16 16 16 14 9 8 6 22 12 18 10 9 13 13 19 23 26 25 26 23 23 20 18 22 20 19 18 15 12 6 2 3 1 2 3 3 5 7 7
17 21 18 20 21 20 18 18 18 14 8 7 8 9 17 19 20 14 19 21 19 19 15 25 26 25 24 21 21 20 19 18 15 14 12 13 10 9 5 4 4 5 8 7
21 21 24 22 27 19 19 10 15 17 6 1 13 5 9 20 21 19 23 25 21 19 21 19 29 28 26 22 20 19 20 19 16 16 14 12 11 7 4 3 6 5 6 7
16 13 21 25 17 19 13 11 10 11 4 9 20 8 7 20 31 28 28 25 25 15 20 19 22 23 23 22 21 19 19 19 18 17 15 15 13 8 6 4 6 4 4 6
20 24 23 13 19 13 16 7 8 5 8 10 11 5 9 31 33 33 34 29 27 20 20 19 24 23 24 24 23 20 20 18 18 19 16 15 13 11 11 8 6 6 5 3
17 20 25 17 15 18 12 16 8 10 6 11 6 9 8 26 36 33 30 32 32 21 20 23 24 25 24 25 24 23 22 20 19 19 18 15 12 10 9 8 5 6 6 7
11 21 8 26 21 18 13 18 10 5 1 3 5 6 5 8 14 25 27 22 22 20 21 25 24 24 22 23 25 25 23 22 21 20 16 16 15 15 12 10 8 6 6 6
5 12 15 27 16 22 23 9 10 4 11 5 6 6 10 9 11 18 22 29 30 25 24 24 23 25 23 22 24 24 23 24 20 20 17 14 14 13 12 9 8 8 7 7
11 5 12 2 16 27 6 17 7 7 7 9 4 11 8 11 12 12 17 28 28 25 26 26 25 25 25 22 22 23 22 23 20 18 17 16 15 14 11 10 11 11 7 8
10 6 8 14 12 2 25 7 13 10 10 4 5 14 5 11 12 15 15 26 27 27 30 29 26 25 24 23 21 22 21 21 20 20 18 17 15 13 13 13 10 10 11 9
9 3 10 9 5 3 6 14 9 6 8 11 11 12 4 8 8 16 24 20 27 31 30 26 23 23 23 23 21 21 20 22 20 19 18 16 15 15 15 15 15 10 12 11
10 5 10 8 7 11 4 11 9 16 9 10 12 11 8 14 15 11 13 16 29 29 30 26 24 24 22 23 22 21 21 20 19 19 18 18 18 17 16 15 15 15 12 11
2 9 7 18 26 25 24 12 13 12 12 14 11 8 9 10 11 8 8 12 20 27 28 27 26 24 21 21 20 19 19 20 21 20 19 19 17 17 16 15 15 15 14 14
5 6 12 19 17 17 18 8 6 15 11 6 7 8 9 5 9 4 8 14 19 26 28 28 27 27 23 22 22 20 20 21 20 20 20 19 17 17 17 17 16 15 15 14
5 4 6 8 9 6 4 8 1 8 10 11 7 10 2 3 8 10 7 12 11 9 24 29 27 25 22 23 22 21 20 17 18 19 18 17 17 17 18 16 16 16 16 15
7 7 4 8 8 6 5 19 15 18 18 19 10 6 9 13 15 21 17 16 17 17 13 8 7 11 15 15 18 16 15 17 17 17 17 17 17 17 16 16 17 16 14 16
10 3 5 2 4 2 10 17 13 8 13 20 18 3 18 16 27 17 16 13 13 12 9 10 11 8 10 7 8 12 12 14 14 16 17 17 17 17 16 16 17 16 14 14
7 11 7 5 2 4 13 26 29 7 14 22 21 19 6 9 17 4 10 11 14 14 12 12 12 13 12 6 7 11 14 15 18 17 16 15 15 17 18 17 17 15 14 15
4 5 4 4 2 5 27 36 15 14 4 12 18 17 19 18 7 1 9 15 12 13 13 11 13 13 7 6 8 7 7 9 8 6 8 12 16 17 17 16 14 14 14 13
2 3 5 8 7 6 21 14 13 7 13 11 10 10 11 7 9 12 13 14 16 15 16 14 13 12 11 13 10 8 6 2 3 7 9 8 10 11 11 14 12 12 12 12
5 3 1 3 2 4 1 7 9 11 11 13 16 14 6 8 9 11 10 11 12 13 12 11 9 9 12 11 10 13 8 8 5 3 4 6 9 10 10 12 11 10 11 11
7 13 3 7 5 6 9 8 7 15 15 15 15 16 14 6 8 8 9 9 10 11 11 11 11 11 9 8 7 6 6 6 8 7 6 2 5 6 6 7 8 9 9 10
6 4 11 6 2 12 5 7 15 23 19 17 15 14 16 10 7 6 7 7 8 9 9 9 10 7 8 6 6 7 6 6 6 5 5 6 5 6 5 3 1 5 2 6
11 7 4 4 11 12 18 23 17 17 21 20 12 17 18 8 6 6 6 6 6 8 10 11 10 9 9 8 7 6 5 4 4 5 5 6 5 3 5 6 3 8 7 5
Wind_Direction
195 191 205 212 209 233 250 214 250 264 202 194 191 169 182 177 189 177 184 191 193 197 190 200 196 199 199 171 181 185 181 181 172 164 162 176 187 203 206 187 197 184 176 171
156 218 216 191 209 209 235 242 253 268 269 168 188 182 182 176 190 180 179 187 193 191 192 201 200 201 202 177 184 185 186 181 185 181 186 173 162 200 188 176 199 178 185 171
209 233 208 201 223 219 222 226 242 233 287 305 158 164 157 197 212 209 213 206 185 181 186 195 199 200 202 185 185 182 185 183 184 182 164 110 90 38 207 217 190 188 187 180
227 237 198 212 220 208 221 225 240 248 246 252 184 166 196 178 212 216 212 224 200 191 173 193 197 196 199 193 186 183 181 182 183 175 179 185 194 197 201 201 163 190 189 191
222 199 219 216 218 205 224 217 233 241 227 264 257 114 208 184 200 216 223 222 211 199 183 190 199 193 198 188 186 183 179 180 179 182 185 186 194 197 173 187 200 181 200 195
232 242 209 227 227 222 205 212 249 241 179 241 253 155 181 184 206 208 220 219 214 207 204 191 194 190 188 188 185 179 179 183 181 184 188 187 193 187 184 185 195 199 194 203
232 235 237 221 219 223 217 150 224 263 226 228 242 182 215 201 209 204 204 209 212 216 205 195 192 182 183 184 184 182 182 184 185 185 187 189 192 192 195 191 190 180 191 188
215 233 216 216 213 205 214 205 162 208 194 229 162 212 250 194 205 216 206 199 200 200 195 196 199 189 181 182 182 184 186 188 185 189 190 187 181 194 203 201 184 200 189 200
330 235 249 221 217 193 201 213 181 140 248 143 225 232 286 201 190 204 206 206 218 209 199 195 197 194 185 183 185 185 187 190 191 192 188 190 193 199 202 203 202 195 186 194
303 291 236 231 212 222 209 167 185 174 221 236 276 219 214 225 207 206 196 196 208 201 196 196 195 193 190 187 187 186 187 192 192 193 195 196 192 195 204 195 193 194 184 198
317 259 299 270 214 214 193 205 197 153 154 212 223 256 190 222 226 185 195 193 199 196 191 197 195 193 194 188 185 188 189 190 192 193 194 197 201 202 191 197 205 212 191 191
319 286 283 241 237 273 213 191 195 199 214 208 176 254 213 217 222 229 209 196 194 193 191 196 191 190 191 189 187 188 190 191 190 191 193 198 196 196 200 206 203 201 206 208
349 346 314 306 21 278 206 217 208 153 136 204 208 248 233 250 239 232 217 177 189 190 195 194 185 187 190 191 187 189 188 193 191 190 193 194 197 195 199 207 211 202 209 211
5 261 254 279 300 334 259 225 202 190 195 188 213 259 296 287 295 281 182 162 178 184 186 184 186 186 189 190 189 189 191 189 187 187 192 195 197 197 200 205 208 212 207 207
355 269 262 267 276 271 260 257 206 194 184 193 211 205 245 262 269 233 153 137 163 175 177 180 184 185 187 188 191 192 191 187 185 188 192 197 198 199 199 200 205 210 211 212
230 267 305 288 255 219 239 249 261 208 179 176 165 226 226 264 289 94 131 141 165 175 178 182 184 182 181 184 190 188 189 188 186 190 195 197 193 197 201 203 202 205 210 213
202 255 346 269 320 186 76 341 337 202 183 180 181 227 186 104 357 8 88 98 110 156 183 183 183 183 184 184 186 189 189 182 187 192 196 196 196 198 203 202 203 205 206 208
208 241 206 267 316 148 129 35 29 76 42 14 339 302 112 104 76 46 29 79 85 96 91 91 139 175 188 187 184 186 178 186 188 190 194 196 196 201 202 201 205 209 207 210
206 243 269 292 270 225 22 12 342 345 37 8 344 102 124 113 75 38 15 29 59 67 70 69 72 82 92 87 155 168 178 188 191 199 196 194 194 198 200 202 205 209 209 213
217 246 227 308 334 51 11 332 329 140 40 358 9 19 44 108 81 18 355 34 45 47 49 59 64 71 66 29 127 162 185 190 200 200 203 197 192 198 202 202 204 206 210 214
270 265 240 243 72 64 358 345 13 63 30 6 15 25 36 60 66 26 44 41 44 49 39 35 53 61 49 43 65 88 150 191 207 207 201 201 203 202 204 204 205 206 208 214
27 12 1 335 50 31 350 345 61 329 1 11 17 27 30 38 46 49 41 38 37 37 38 30 40 39 35 44 52 57 68 257 204 178 175 186 201 205 205 204 205 207 206 213
49 88 297 20 156 223 86 279 283 15 8 1 357 346 33 33 42 46 36 29 27 33 31 31 39 32 34 29 41 49 11 15 26 114 216 210 194 190 190 191 197 198 203 211
24 12 39 316 168 328 306 283 7 2 349 349 343 329 342 33 45 51 38 26 24 19 17 12 23 34 27 17 29 40 42 31 26 359 334 291 211 203 192 196 194 196 199 209
22 329 320 264 304 334 313 336 328 323 325 323 323 332 349 13 49 50 33 25 19 15 12 13 16 9 1 2 19 7 14 29 21 351 319 289 228 203 166 87 308 217 184 217
355 330 328 265 296 272 263 278 287 307 303 296 314 322 329 352 28 49 28 13 18 13 359 4 356 348 340 346 346 350 4 34 9 330 314 297 282 189 153 159 126 47 47 8